This demonstration page uses our WeatherBlox Daily Observations layout. Learn more.

Left ArrowRight Arrow

39.12711, -84.51439

Hourly Observations for October 9, 2021

Temp ( °F °C ) Dew Point ( °F °C ) Humidity (%) Winds ( mph kmh ) Pressure ( in mb ) Visibility ( mi km ) Precip ( " mm )
12:11 am 00:11 Clear with Mist and Fog 62 16.7 62 16.7 100 100 Calm 30.03 1017 2 3 0.00 0.00
12:30 am 00:30 Clear with Fog 63 17.2 63 17.2 100 100 Calm 30.03 1017 1 1 0.00 0.00
12:37 am 00:37 Mostly Clear with Mist and Fog 62 16.7 62 16.7 100 100 Calm 30.03 1017 2 2 0.00 0.00
12:39 am 00:39 Mostly Cloudy with Mist and Fog 62 16.7 62 16.7 100 100 Calm 30.03 1017 1 1 0.00 0.00
12:53 am 00:53 Mostly Cloudy with Mist and Fog 63 17.2 63 17.2 100 100 Calm 30.02 1017 1 1 0.00 0.00
1:06 am 01:06 Mostly Clear with Mist and Fog 63 17.2 63 17.2 100 100 Calm 30.02 1017 1 2 0.00 0.00
1:10 am 01:10 Mostly Cloudy with Mist and Fog 61 16.1 61 16.1 100 100 Calm 30.03 1017 1 1 0.00 0.00
1:19 am 01:19 Mostly Cloudy with Fog 61 16.1 61 16.1 100 100 Calm 30.03 1017 0 0 0.00 0.00
1:30 am 01:30 Mostly Cloudy with Fog 61 16.1 61 16.1 100 100 Calm 30.03 1017 1 1 0.00 0.00
1:53 am 01:53 Mostly Cloudy with Mist and Fog 60 15.6 60 15.6 100 100 Calm 30.02 1017 1 1 0.00 0.00
2:01 am 02:01 Cloudy with Mist and Fog 60 15.6 60 15.6 100 100 Calm 30.03 1017 2 3 0.00 0.00
2:07 am 02:07 Cloudy with Mist and Fog 62 16.7 62 16.7 100 100 Calm 30.02 1017 1 1 0.00 0.00
2:17 am 02:17 Mostly Cloudy with Fog 60 15.6 60 15.6 100 100 Calm 30.03 1017 0 0 0.00 0.00
2:53 am 02:53 Mostly Cloudy with Fog 60 15.6 60 15.6 100 100 Calm 30.02 1017 0 0 0.00 0.00
3:53 am 03:53 Mostly Cloudy with Fog 61 16.1 61 16.1 100 100 Calm 30.01 1016 0 0 0.00 0.00
4:53 am 04:53 Mostly Cloudy with Fog 61 16.1 61 16.1 100 100 Calm 30.01 1016 0 0 0.00 0.00
5:39 am 05:39 Mostly Cloudy with Fog 61 16.1 61 16.1 100 100 Calm 30.02 1016 1 1 0.00 0.00
5:53 am 05:53 Mostly Cloudy with Mist and Fog 61 16.1 61 16.1 100 100 Calm 30.01 1016 1 1 0.00 0.00
5:55 am 05:55 Mostly Cloudy with Mist and Fog 61 16.1 61 16.1 100 100 Calm 30.02 1016 1 2 0.00 0.00
6:02 am 06:02 Mostly Cloudy with Fog 61 16.1 61 16.1 100 100 Calm 30.02 1016 1 1 0.00 0.00
6:13 am 06:13 Mostly Cloudy with Mist and Fog 61 16.1 61 16.1 100 100 Calm 30.03 1017 1 1 0.00 0.00
6:49 am 06:49 Cloudy with Mist and Fog 61 16 61 16 100 100 Calm 30.03 1017 2 3 0.00 0.00
6:53 am 06:53 Cloudy with Mist and Fog 61 16.1 61 16.1 100 100 Calm 30.02 1017 4 6 0.00 0.00
7:53 am 07:53 Cloudy with Mist and Fog 61 16.1 61 16.1 100 100 Calm 30.02 1017 4 6 0.00 0.00
8:53 am 08:53 Cloudy with Mist and Fog 63 17.2 63 17.2 100 100 S 3 6 30.05 1018 3 5 0.00 0.00
9:30 am 09:30 Partly Cloudy with Mist and Fog 65 18.3 65 18.3 100 100 Calm 30.04 1017 5 8 0.00 0.00
9:53 am 09:53 Mostly Sunny 67 19.4 65 18.3 93 93 Calm 30.05 1018 7 11 0.00 0.00
10:53 am 10:53 Sunny 72 22.2 67 19.4 84 84 Calm 30.05 1018 10 16 0.00 0.00
11:53 am 11:53 Sunny 75 23.9 66 18.9 74 74 S 5 7 30.03 1017 10 16 0.00 0.00
12:53 pm 12:53 Partly Cloudy 77 25 65 18.3 66 66 S 5 7 30.01 1016 10 16 0.00 0.00
1:53 pm 13:53 Partly Cloudy 79 26.1 63 17.2 58 58 S 6 9 29.99 1016 10 16 0.00 0.00
2:53 pm 14:53 Mostly Sunny 79 26.1 63 17.2 58 58 S 10 17 29.98 1015 10 16 0.00 0.00
3:53 pm 15:53 Partly Cloudy 80 26.7 63 17.2 56 56 S 8 13 29.96 1015 10 16 0.00 0.00
4:53 pm 16:53 Mostly Sunny 79 26.1 64 17.8 60 60 SSE 8 13 29.95 1014 10 16 0.00 0.00
5:53 pm 17:53 Mostly Sunny 77 25 65 18.3 66 66 SSE 6 9 29.95 1014 10 16 0.00 0.00
6:53 pm 18:53 Sunny 72 22.2 68 20 87 87 SE 3 6 29.96 1015 10 16 0.00 0.00
7:53 pm 19:53 Mostly Clear 70 21.1 67 19.4 90 90 Calm 29.96 1015 10 16 0.00 0.00
8:53 pm 20:53 Partly Cloudy 68 20 66 18.9 93 93 Calm 29.97 1015 10 16 0.00 0.00
9:53 pm 21:53 Mostly Cloudy 67 19.4 66 18.9 97 97 Calm 29.97 1015 10 16 0.00 0.00
10:53 pm 22:53 Clear 65 18.3 65 18.3 100 100 Calm 29.96 1015 7 11 0.00 0.00
11:53 pm 23:53 Clear with Mist and Fog 65 18.3 65 18.3 100 100 Calm 29.95 1014 6 10 0.00 0.00

Powered by AerisWeather